San Simeon, California, United States (93452)
Lat: 35.64N, Lon: 121.19W
Wx Zone: CAZ034
Local Info
Past Weather Observations for Today

NOTE: This archive is for the closest National Weather Service station to San Simeon. Information may differ from the station used for current weather conditions.

Click here for Long-term Archive

Time Weather Temperature Dewpoint Humidity Pressure Winds Precip Visibility
21:53
Clear
52°F / 11°C 46°F / 8°C 82% 29.86 in
(1011 mb)
SW 11.5 mph
(SW 19 kph)
- 10SM
20:53
Clear
54°F / 12°C 45°F / 7°C 72% 29.86 in
(1011 mb)
SW 10.4 mph
(SW 17 kph)
- 10SM
19:53
Clear
54°F / 12°C 45°F / 7°C 72% 29.83 in
(1010 mb)
SW 11.5 mph
(SW 19 kph)
- 10SM
18:53
Clear
57°F / 14°C 46°F / 8°C 67% 29.83 in
(1010 mb)
SSE 17.3 mph
(SSE 28 kph)
- 10SM
17:53
Clear
61°F / 16°C 46°F / 8°C 59% 29.8 in
(1009 mb)
SSE 18.4 mph
(SSE 30 kph)
- 10SM
16:53
Clear
64°F / 18°C 46°F / 8°C 52% 29.8 in
(1009 mb)
SSE 20.7 mph
(SSE 33 kph)
- 10SM
15:53
Clear
70°F / 21°C 46°F / 8°C 43% 29.8 in
(1009 mb)
SSE 17.3 mph
(SSE 28 kph)
- 10SM
14:53
Clear
70°F / 21°C 46°F / 8°C 43% 29.8 in
(1009 mb)
SSE 19.6 mph
(SSE 32 kph)
- 10SM
13:53
Clear
72°F / 22°C 46°F / 8°C 41% 29.8 in
(1009 mb)
SW 20.7 mph
(SW 33 kph)
- 10SM
12:53
Clear
73°F / 23°C 45°F / 7°C 36% 29.83 in
(1010 mb)
S 13.8 mph
(S 22 kph)
- 10SM
11:53
Clear
72°F / 22°C 45°F / 7°C 38% 29.83 in
(1010 mb)
Variable 5.8 mph
(Variable 9 kph)
- 10SM
10:53
Clear
66°F / 19°C 45°F / 7°C 46% 29.89 in
(1012 mb)
Variable 4.6 mph
(Variable 7 kph)
- 10SM
09:53
Clear
59°F / 15°C 46°F / 8°C 63% 29.92 in
(1013 mb)
Calm - 10SM
09:18
Partly Cloudy
55°F / 13°C 46°F / 8°C 72% 29.92 in
(1013 mb)
Calm - 10SM
09:07
Mostly Cloudy
55°F / 13°C 46°F / 8°C 72% 29.92 in
(1013 mb)
SW 5.8 mph
(SW 9 kph)
- 10SM
08:53
Overcast
54°F / 12°C 46°F / 8°C 77% 29.92 in
(1013 mb)
Calm - 10SM
07:53
Overcast
52°F / 11°C 46°F / 8°C 82% 29.92 in
(1013 mb)
NE 3.5 mph
(NE 6 kph)
- 10SM
07:22
Overcast
50°F / 10°C 46°F / 8°C 88% 29.92 in
(1013 mb)
Calm - 10SM
07:03
Overcast
50°F / 10°C 46°F / 8°C 88% 29.92 in
(1013 mb)
Calm - 10SM
06:53
Overcast
50°F / 10°C 46°F / 8°C 88% 29.92 in
(1013 mb)
Calm - 10SM
06:29
Overcast
50°F / 10°C 45°F / 7°C 82% 29.92 in
(1013 mb)
Variable 3.5 mph
(Variable 6 kph)
- 10SM
06:09
Overcast
48°F / 9°C 45°F / 7°C 87% 29.92 in
(1013 mb)
Calm - 10SM
05:53
Overcast
48°F / 9°C 45°F / 7°C 87% 29.89 in
(1012 mb)
SSW 3.5 mph
(SSW 6 kph)
- 10SM
04:53
Overcast
46°F / 8°C 43°F / 6°C 87% 29.89 in
(1012 mb)
SSE 4.6 mph
(SSE 7 kph)
- 10SM
04:19
Overcast
48°F / 9°C 43°F / 6°C 82% 29.89 in
(1012 mb)
SW 4.6 mph
(SW 7 kph)
- 10SM
03:53
Overcast
50°F / 10°C 46°F / 8°C 88% 29.89 in
(1012 mb)
NNW 3.5 mph
(NNW 6 kph)
- 10SM
02:53
Overcast
50°F / 10°C 46°F / 8°C 88% 29.89 in
(1012 mb)
WNW 4.6 mph
(WNW 7 kph)
- 10SM
02:02
Overcast
48°F / 9°C 46°F / 8°C 94% 29.89 in
(1012 mb)
Calm - 10SM
01:53
Overcast
50°F / 10°C 46°F / 8°C 88% 29.89 in
(1012 mb)
NW 4.6 mph
(NW 7 kph)
- 10SM
01:11
Mostly Cloudy
48°F / 9°C 45°F / 7°C 87% 29.89 in
(1012 mb)
Calm - 10SM
00:53
Partly Cloudy
48°F / 9°C 45°F / 7°C 87% 29.89 in
(1012 mb)
NW 3.5 mph
(NW 6 kph)
- 10SM
Time Weather Temperature Dewpoint Humidity Pressure Winds Precip Visibility


Weather for websites

WeatherForYou.com, LLC is not responsible for any damages or problems caused by this service. Current weather conditions are obtained from the closest station including government and personal stations which may have varying degrees of accuracy. Weather forecasts are derived from the NOAA NDFD. Like all things, this site belongs to Jesus Christ... He just trusts me to maintain it. If you have any questions or comments email webmaster@weatherforyou.com

Copyright © 2015, WeatherForYou.com LLC. All rights reserved.